This is the latest recevied weather packets stored in our database for station/object MB7UIK. If no packets are shown the sender has not sent any weather packets the latest 1 day(s).
| Time | Temp. | Humidity | Pressure | Rain* | Wind** | Luminosity | Snow |
|---|---|---|---|---|---|---|---|
| 1777988685 | 16.11° C | 15% | 1011.3 hPa | 0 mm | 1.34 m/s, 36° | - | - |
| 1777988625 | 16.11° C | 17% | 1011.3 hPa | 0 mm | 2.24 m/s, 17° | - | - |
| 1777988565 | 16.11° C | 18% | 1011.2 hPa | 0 mm | 2.68 m/s, 46° | - | - |
| 1777988533 | 16.11° C | 18% | 1011.2 hPa | 0 mm | 2.68 m/s, 46° | - | - |
| 1777988505 | 16.11° C | 19% | 1011.2 hPa | 0 mm | 1.79 m/s, 345° | - | - |
| 1777988445 | 16.11° C | 21% | 1011.2 hPa | 0 mm | 1.79 m/s, 36° | - | - |
| 1777988385 | 16.11° C | 22% | 1011.3 hPa | 0 mm | 1.34 m/s, 62° | - | - |
| 1777988324 | 16.11° C | 21% | 1011.2 hPa | 0 mm | 0.89 m/s, 360° | - | - |
| 1777988264 | 16.11° C | 22% | 1011.3 hPa | 0 mm | 1.34 m/s, 16° | - | - |
| 1777988232 | 16.11° C | 22% | 1011.3 hPa | 0 mm | 1.34 m/s, 16° | - | - |
| 1777988204 | 16.11° C | 22% | 1011.3 hPa | 0 mm | 2.68 m/s, 33° | - | - |
| 1777988144 | 16.11° C | 22% | 1011.3 hPa | 0 mm | 0.45 m/s, 61° | - | - |
| 1777988084 | 16.11° C | 21% | 1011.3 hPa | 0 mm | 1.34 m/s, 39° | - | - |
| 1777988024 | 16.11° C | 20% | 1011.3 hPa | 0 mm | 2.68 m/s, 83° | - | - |
| 1777987965 | 16.11° C | 20% | 1011.3 hPa | 0 mm | 1.79 m/s, 109° | - | - |
| 1777987933 | 16.11° C | 20% | 1011.3 hPa | 0 mm | 1.79 m/s, 109° | - | - |
| 1777987905 | 16.11° C | 20% | 1011.3 hPa | 0 mm | 0.89 m/s, 19° | - | - |
| 1777987844 | 16.11° C | 18% | 1011.3 hPa | 0 mm | 0.89 m/s, 10° | - | - |
| 1777987784 | 16.11° C | 18% | 1011.3 hPa | 0 mm | 1.79 m/s, 15° | - | - |
| 1777987724 | 16.11° C | 17% | 1011.3 hPa | 0 mm | 3.58 m/s, 40° | - | - |
| 1777987664 | 16.11° C | 17% | 1011.4 hPa | 0 mm | 3.13 m/s, 340° | - | - |
| 1777987632 | 16.11° C | 17% | 1011.4 hPa | 0 mm | 3.13 m/s, 340° | - | - |
| 1777987604 | 16.11° C | 15% | 1011.3 hPa | 0 mm | 2.68 m/s, 327° | - | - |
| 1777987544 | 16.11° C | 16% | 1011.4 hPa | 0 mm | 1.34 m/s, 26° | - | - |
| 1777987484 | 16.11° C | 17% | 1011.3 hPa | 0 mm | 1.79 m/s, 355° | - | - |
* Rain latest hour (hover to see other rain measurements)
** Current wind speed in m/s (hover to see current wind gust speed)